Location: Newark
(47.7394°N, 8.0008°E)
Time: 04:43:45
(UTC+00:00)

N. Korean satellite - Pass Details

Date: 14 December 2019
Orbit: 454 x 508 km, 97.2° (Epoch: 20 January)

Event Time Altitude Azimuth Distance (km) Brightness Sun altitude
Rises 06:24:52 0° 359° (N) 2,541 9.9 -7.2°
Reaches altitude 10° 06:27:21 10° 341° (NNW) 1,646 8.8 -6.8°
Maximum altitude 06:29:54 19° 295° (WNW) 1,177 7.9 -6.4°
Drops below altitude 10° 06:32:25 10° 248° (WSW) 1,617 8.8 -6.1°
Sets 06:34:50 0° 230° (SW) 2,478 9.9 -5.7°
